CZ-6A DEB, 54616

Orbit data source: Space-Track

CZ-6A DEB, 54616 is space debris in SSO originally from a launch on Fri, 11 Nov 2022 UTC launched from the Taiyaun Space Center, China (TSC). Debris objects in space refer to the collection of defunct objects orbiting the Earth. Examples of debris include non-operational satellites, rocket bodies, and fragments generated from explosions, collisions, or faulty payload assembly.

Loading next visibility...
Identifier
54616, 2022-151NS
Orbit
SSO
Country
Flag of CNCN / PRC
Related business
Manufacturer
SAST
Mission
Spacecraft
Bus & Motor
Unknown
Mass
Unknown
Launch date (UTC)
2022-11-11 (3 years ago)
Launch vehicle
Unknown
Launch site
Taiyaun Space Center, China (TSC)
Object type
Payload
Rocket body
Debris
Shape & HBR
Unknown shape, 0.1 m
Radar Cross Section
Small (<0.1 m²)

Expand to show TLE details & history
Last TLE update: 9 hours ago

TLE from 9 hours ago
0 CZ-6A DEB
1 54616U 22151NS  26130.53075066  .00001057  00000-0  57553-3 0  9998
2 54616  98.8269 129.9636 0058428  99.4694 261.3089 14.13489494178529
Epoch: 2026-05-10T12:44Z
TLE epoch observation values (Epoch: 2026-05-10T12:44:16.857Z)
Latitude
0.00001°
Longitude
70.56086°
Altitude
856.979 km
Speed
7.421 km/s
True Right ascension
08h 39m 51s
True Declination
0° 00' 00"
Sunlit
Object was in daylight at epoch
Visualization orbit readout
Latitude
Unknown
Longitude
Unknown
Altitude
Unknown
Speed
Unknown
Apparent Right ascension
Unknown
Apparent Declination
Unknown
Sunlit
N/A
Visualization observer readout
Local Sidereal Time
05:32:13
Azimuth
Unknown
Elevation
Unknown
Doppler factor
Unknown
Orbital elements
Apogee altitude
886.829 km
Perigee altitude
802.427 km
Semi-major axis
7,222.765 km
Eccentricity
0.00584
Inclination
98.8269°
RAAN
129.9636°
Arg. of periapsis
99.4694°
True anomaly
260.6478°
Mean anomaly
261.3089°
Eccentric anomaly
260.97827°
Mean motion
3.5358 °/min
Orbital period
101.82 mins
BSTAR
0.00057553
Loading maneuver chart data...
Computing Atmospheric mass density...
Loading historical data...
Loading historical data...
Loading historical data...
Loading historical data...
Loading historical data...
Loading historical data...
Loading historical data...

Documentation

Showing up to 5 results
|